STARLINK-32023, 60197

Orbit data source: Space-Track

STARLINK-32023, 60197 is a payload satellite owned by SpaceX/Seattle (US) in LEO that was launched on Wed, 03 Jul 2024 UTC via an FALCON 9 launch vehicle from the Air Force Eastern Test Range (AFETR). Payload-class satellites include a variety of spacecraft equipped with specific instruments for various scientific and technological missions. These include communications satellites like Starlink; space stations such as the ISS; scientific satellites like the Hubble; Earth observation satellites from companies like Planet Labs, Umbra, and HawkEye 360; GPS; miniature CubeSats for education and research; and military/defense satellites.

Loading next visibility...
Identifier
60197, 2024-124Q
Orbit
LEO
Last TLE update
14 hours ago
Origin
Manufacturer
SpaceX/Seattle
Mission
Operational Commercial Communications
Bus & Motor
STARLINK V2M, Unknown motor
Mass
730 kg wet, ~700 kg dry
Launch date (UTC)
2024-07-03 (10 months ago)
Launch vehicle
FALCON 9
Launch site
Air Force Eastern Test Range (AFETR)
Object type
Payload
Rocket body
Debris
Shape & HBR
Box + 2 Pan, 29 m
Radar Cross Section
36.964 m², Large (>1 m²)

Expand to show TLE details & history

TLE from 14 hours ago
0 STARLINK-32023
1 60197U 24124Q   25128.68313466  .00001082  00000-0  48644-4 0  9992
2 60197  53.1615 299.5168 0001168  77.2307 282.8824 15.30194419 47594
Epoch: 2025-05-08T16:23Z
Definitive object data (Epoch: 2025-05-08T16:23:42.834Z)
Latitude
-0.00005°
Longitude
-173.16183°
Altitude
475.953 km
Speed
7.629 km/s
True Right ascension
19h 58m 04s
True Declination
0° 00' 00"
Sunlit
Object was in daylight at TLE epoch
Visualization TLE readout
Latitude
20.07002°
Longitude
-160.11957°
Altitude
475.228 km
Speed
7.631 km/s
Apparent Right ascension
23h 17m 35s
Apparent Declination
-11° 58' 35"
Sunlit
Object is in daylight
Visualization observer readout
Local Sidereal Time
14:45:38
Azimuth
73.582° E
Elevation
-36.508°
Doppler factor
1
Orbital elements
Apogee altitude
476.288 km
Perigee altitude
474.687 km
Semi-major axis
6,853.625 km
Eccentricity
0.0001168
Inclination
53.1615°
RAAN
299.5168°
Arg. of periapsis
77.2307°
True anomaly
282.86935°
Mean anomaly
282.8824°
Eccentric anomaly
282.87588°
Mean motion
3.82528 °/min
BSTAR
0.000048644
Orbital period
94.11 mins
Loading maneuver chart data...
Loading SW <> Apogee altitude chart data...
Loading historical data...
Loading historical data...
Loading historical data...
Loading historical data...
Loading historical data...
Loading historical data...
Loading historical data...

STARLINK-32023 Visibility forecast

Observer location: undefined°, undefined°

Span
Click to sort rows by Start time (UTC) header in descending order
Start Az.
Max El. time (UTC)
Max El. Az.
Max El.
End time (UTC)
End Az.
4 mins2025-05-09 12:55:47.001Z168.843° S2025-05-09 12:57:47.001Z130.874° SE18.344°2025-05-09 12:59:47.001Z91.22° ESE
5 mins2025-05-09 14:33:47.001Z262.261° W2025-05-09 14:35:47.001Z340.378° N36.397°2025-05-09 14:38:47.001Z39.568° NE
4 mins2025-05-09 19:30:47.001Z349.502° N2025-05-09 19:32:47.001Z36.501° NE21.102°2025-05-09 19:34:47.001Z74.578° E
5 mins2025-05-09 21:08:47.001Z291.852° WNW2025-05-09 21:10:47.001Z203.729° SW39.25°2025-05-09 21:13:47.001Z146.358° SSE
|